This is the latest recevied weather packets stored in our database for station/object HA5CD-6. If no packets are shown the sender has not sent any weather packets the latest 10 day(s).
| Time | Temp. | Humidity | Pressure | Rain* | Wind** | Luminosity | Snow |
|---|---|---|---|---|---|---|---|
| 1777682495 | 10° C | 51% | 1002 hPa | - | - | - | - |
| 1777681895 | 10° C | 53% | 1002 hPa | - | - | - | - |
| 1777681295 | 10° C | 52% | 1002 hPa | - | - | - | - |
| 1777680695 | 10.56° C | 49% | 1001 hPa | - | - | - | - |
| 1777680094 | 11.11° C | 47% | 1002 hPa | - | - | - | - |
| 1777679494 | 11.11° C | 47% | 1001 hPa | - | - | - | - |
| 1777678894 | 11.67° C | 45% | 1002 hPa | - | - | - | - |
| 1777678294 | 11.11° C | 46% | 1002 hPa | - | - | - | - |
| 1777677694 | 12.22° C | 44% | 1001 hPa | - | - | - | - |
| 1777677094 | 12.22° C | 43% | 1002 hPa | - | - | - | - |
| 1777676494 | 12.22° C | 43% | 1002 hPa | - | - | - | - |
| 1777675894 | 12.22° C | 43% | 1002 hPa | - | - | - | - |
| 1777675293 | 12.22° C | 43% | 1002 hPa | - | - | - | - |
| 1777674694 | 12.22° C | 43% | 1002 hPa | - | - | - | - |
| 1777674094 | 12.78° C | 42% | 1002 hPa | - | - | - | - |
| 1777673493 | 12.78° C | 43% | 1002 hPa | - | - | - | - |
| 1777672893 | 12.78° C | 42% | 1002 hPa | - | - | - | - |
| 1777672293 | 12.78° C | 42% | 1002 hPa | - | - | - | - |
| 1777671693 | 12.78° C | 42% | 1002 hPa | - | - | - | - |
| 1777671093 | 12.78° C | 42% | 1001 hPa | - | - | - | - |
| 1777670492 | 12.78° C | 42% | 1002 hPa | - | - | - | - |
| 1777669892 | 13.33° C | 41% | 1001 hPa | - | - | - | - |
| 1777669292 | 13.33° C | 41% | 1001 hPa | - | - | - | - |
| 1777668692 | 13.33° C | 41% | 1001 hPa | - | - | - | - |
| 1777668092 | 12.78° C | 42% | 1001 hPa | - | - | - | - |
* Rain since midnight (hover to see other rain measurements)
** Current wind speed in m/s (hover to see current wind gust speed)